• In Romania
  • List of Countries
  • For 7 days
  • Water Temperature
  • Satellite Maps
  • Weather Map
  • Weather Widgets
  • user-avatar
    Login

    Hourly Weather Kitzbuhel

    Today, 20 February, Monday

    Time Temperature Precipitation Wind Pressure Humidity
    00:00 -3°C° 0.1 mm 2 mps 679 mmHg 82%
    01:00 -3°C° 0.1 mm 2 mps 679 mmHg 85%
    02:00 -3°C° 0.1 mm 2 mps 679 mmHg 86%
    03:00 -3°C° 0.1 mm 2 mps 679 mmHg 88%
    04:00 -3°C° 0.1 mm 2 mps 679 mmHg 89%
    05:00 -3°C° 0.1 mm 2 mps 679 mmHg 89%
    06:00 -3°C° 0.1 mm 2 mps 679 mmHg 89%
    07:00 -3°C° 0.1 mm 2 mps 679 mmHg 90%
    08:00 -2°C° 0.1 mm 2 mps 679 mmHg 89%
    09:00 -1°C° 0.1 mm 2 mps 679 mmHg 89%
    10:00 +2°C° 0.1 mm 2 mps 679 mmHg 89%
    11:00 +3°C° 0 mm 1 mps 679 mmHg 88%
    12:00 +4°C° 0 mm 1 mps 679 mmHg 87%
    13:00 +5°C° 0 mm 1 mps 679 mmHg 86%
    14:00 +5°C° 0 mm 1 mps 678 mmHg 87%
    15:00 +5°C° 0 mm 1 mps 678 mmHg 89%
    16:00 +5°C° 0 mm 1 mps 678 mmHg 90%
    17:00 +2°C° 0 mm 1 mps 677 mmHg 91%
    18:00 -1°C° 0 mm 1 mps 676 mmHg 92%
    19:00 -4°C° 0 mm 1 mps 676 mmHg 93%
    20:00 -5°C° 0 mm 2 mps 676 mmHg 91%
    21:00 -4°C° 0 mm 2 mps 676 mmHg 89%
    22:00 -4°C° 0 mm 2 mps 677 mmHg 87%
    23:00 -2°C° 0.2 mm 2 mps 677 mmHg 86%

    Tomorrow, 21 February, Tuesday

    Time Temperature Precipitation Wind Pressure Humidity
    00:00 -1°C° 0.2 mm 2 mps 677 mmHg 86%
    01:00 +1°C° 0.2 mm 2 mps 677 mmHg 85%
    02:00 +1°C° 0.6 mm 2 mps 677 mmHg 87%
    03:00 +2°C° 0.6 mm 2 mps 677 mmHg 90%
    04:00 +2°C° 0.6 mm 2 mps 677 mmHg 92%
    05:00 +2°C° 0.5 mm 3 mps 676 mmHg 93%
    06:00 +2°C° 0.5 mm 3 mps 676 mmHg 94%
    07:00 +2°C° 0.5 mm 3 mps 676 mmHg 95%
    08:00 +3°C° 0.4 mm 3 mps 676 mmHg 95%
    09:00 +3°C° 0.4 mm 3 mps 676 mmHg 95%
    10:00 +4°C° 0.4 mm 3 mps 676 mmHg 96%
    11:00 +4°C° 0.4 mm 3 mps 676 mmHg 95%
    12:00 +5°C° 0.4 mm 3 mps 676 mmHg 95%
    13:00 +5°C° 0.4 mm 3 mps 676 mmHg 95%
    14:00 +5°C° 0.3 mm 3 mps 676 mmHg 96%
    15:00 +5°C° 0.3 mm 3 mps 675 mmHg 96%
    16:00 +5°C° 0.3 mm 3 mps 675 mmHg 96%
    17:00 +4°C° 0.4 mm 3 mps 675 mmHg 95%
    18:00 +4°C° 0.4 mm 3 mps 676 mmHg 95%
    19:00 +3°C° 0.4 mm 3 mps 676 mmHg 94%
    20:00 +3°C° 0.7 mm 3 mps 676 mmHg 95%
    21:00 +3°C° 0.7 mm 3 mps 676 mmHg 95%
    22:00 +3°C° 0.7 mm 3 mps 676 mmHg 95%
    23:00 +4°C° 0.2 mm 2 mps 676 mmHg 95%

    Day after tomorrow, 22 February, Wednesday

    Time Temperature Precipitation Wind Pressure Humidity
    00:00 +3°C° 0.2 mm 2 mps 676 mmHg 95%
    01:00 +2°C° 0.2 mm 2 mps 675 mmHg 95%
    02:00 +2°C° 0 mm 2 mps 675 mmHg 94%
    03:00 +1°C° 0 mm 2 mps 674 mmHg 94%
    04:00 +1°C° 0 mm 2 mps 674 mmHg 93%
    05:00 +1°C° 0 mm 2 mps 674 mmHg 93%
    06:00 -1°C° 0 mm 2 mps 673 mmHg 92%
    07:00 -1°C° 0 mm 2 mps 673 mmHg 91%
    08:00 +2°C° 0 mm 2 mps 674 mmHg 91%
    09:00 +4°C° 0 mm 2 mps 674 mmHg 91%
    10:00 +6°C° 0 mm 2 mps 674 mmHg 91%
    11:00 +6°C° 0 mm 2 mps 674 mmHg 90%
    12:00 +7°C° 0 mm 2 mps 674 mmHg 88%
    13:00 +8°C° 0 mm 2 mps 673 mmHg 86%
    14:00 +7°C° 0 mm 2 mps 673 mmHg 88%
    15:00 +7°C° 0 mm 2 mps 673 mmHg 89%
    16:00 +7°C° 0 mm 2 mps 672 mmHg 91%
    17:00 +5°C° 0 mm 2 mps 672 mmHg 91%
    18:00 +4°C° 0 mm 2 mps 672 mmHg 92%
    19:00 +2°C° 0 mm 2 mps 672 mmHg 92%
    20:00 +1°C° 0 mm 2 mps 672 mmHg 92%
    21:00 +1°C° 0 mm 2 mps 672 mmHg 91%
    22:00 0°C° 0 mm 3 mps 672 mmHg 90%
    23:00 0°C° 0 mm 3 mps 672 mmHg 90%

    23 February, Thursday

    Time Temperature Precipitation Wind Pressure Humidity
    00:00 0°C° 0 mm 3 mps 672 mmHg 89%
    01:00 +1°C° 0 mm 2 mps 672 mmHg 88%
    02:00 +1°C° 0 mm 2 mps 672 mmHg 88%
    03:00 +1°C° 0 mm 2 mps 672 mmHg 87%
    04:00 +1°C° 0 mm 2 mps 672 mmHg 86%
    05:00 +1°C° 0 mm 2 mps 672 mmHg 86%
    06:00 +1°C° 0 mm 2 mps 672 mmHg 85%
    07:00 -1°C° 0 mm 2 mps 671 mmHg 84%
    08:00 +2°C° 0 mm 2 mps 672 mmHg 83%
    09:00 +4°C° 0 mm 2 mps 672 mmHg 81%
    10:00 +6°C° 0 mm 2 mps 672 mmHg 80%
    11:00 +7°C° 0 mm 2 mps 672 mmHg 79%
    12:00 +8°C° 0 mm 2 mps 671 mmHg 78%
    13:00 +8°C° 0 mm 2 mps 670 mmHg 78%
    14:00 +8°C° 0 mm 2 mps 670 mmHg 80%
    15:00 +8°C° 0 mm 2 mps 669 mmHg 83%
    16:00 +7°C° 0 mm 2 mps 668 mmHg 85%
    17:00 +6°C° 0 mm 2 mps 668 mmHg 87%
    18:00 +5°C° 0 mm 2 mps 668 mmHg 88%
    19:00 +3°C° 0 mm 3 mps 667 mmHg 90%
    20:00 +2°C° 0 mm 3 mps 667 mmHg 90%
    21:00 +2°C° 0 mm 3 mps 667 mmHg 90%
    22:00 +2°C° 0 mm 3 mps 667 mmHg 90%
    23:00 +2°C° 0 mm 3 mps 666 mmHg 90%

    24 February, Friday

    Time Temperature Precipitation Wind Pressure Humidity
    00:00 +2°C° 0 mm 3 mps 666 mmHg 90%
    01:00 +2°C° 0 mm 3 mps 665 mmHg 90%
    02:00 +2°C° 0.3 mm 3 mps 665 mmHg 90%
    03:00 +1°C° 0.3 mm 3 mps 665 mmHg 91%
    04:00 +1°C° 0.3 mm 3 mps 665 mmHg 91%
    05:00 +1°C° 1.3 mm 3 mps 665 mmHg 93%
    06:00 +1°C° 1.3 mm 3 mps 665 mmHg 94%
    07:00 +1°C° 1.3 mm 3 mps 665 mmHg 96%
    08:00 0°C° 1.1 mm 3 mps 665 mmHg 96%
    09:00 0°C° 1.1 mm 3 mps 665 mmHg 95%
    10:00 -1°C° 1.1 mm 4 mps 666 mmHg 95%
    11:00 -2°C° 0.7 mm 5 mps 666 mmHg 94%
    12:00 -2°C° 0.7 mm 5 mps 666 mmHg 93%
    13:00 -3°C° 0.7 mm 6 mps 666 mmHg 92%
    14:00 -4°C° 0.6 mm 6 mps 666 mmHg 92%
    15:00 -4°C° 0.6 mm 6 mps 666 mmHg 92%
    16:00 -5°C° 0.6 mm 6 mps 667 mmHg 92%
    17:00 -5°C° 0.7 mm 5 mps 667 mmHg 93%
    18:00 -4°C° 0.7 mm 4 mps 668 mmHg 94%
    19:00 -5°C° 0.7 mm 4 mps 669 mmHg 96%
    20:00 -5°C° 0.5 mm 3 mps 670 mmHg 96%
    21:00 -5°C° 0.5 mm 3 mps 671 mmHg 96%
    22:00 -5°C° 0.5 mm 3 mps 672 mmHg 96%
    23:00 -5°C° 0.5 mm 3 mps 672 mmHg 96%

    25 February, Saturday

    Time Temperature Precipitation Wind Pressure Humidity
    00:00 -6°C° 0.5 mm 3 mps 673 mmHg 96%
    01:00 -6°C° 0.5 mm 3 mps 674 mmHg 97%
    02:00 -6°C° 0.2 mm 3 mps 674 mmHg 96%
    03:00 -6°C° 0.2 mm 3 mps 675 mmHg 96%
    04:00 -7°C° 0.2 mm 3 mps 675 mmHg 96%
    05:00 -7°C° 0.2 mm 3 mps 676 mmHg 96%
    06:00 -7°C° 0.2 mm 3 mps 676 mmHg 96%
    07:00 -7°C° 0.2 mm 3 mps 677 mmHg 95%
    08:00 -6°C° 0.2 mm 3 mps 677 mmHg 93%
    09:00 -5°C° 0.2 mm 3 mps 678 mmHg 91%
    10:00 -4°C° 0.2 mm 3 mps 678 mmHg 89%
    11:00 -2°C° 0 mm 3 mps 678 mmHg 87%
    12:00 -1°C° 0 mm 3 mps 678 mmHg 85%
    13:00 +1°C° 0 mm 2 mps 678 mmHg 82%
    14:00 +1°C° 0 mm 2 mps 677 mmHg 85%
    15:00 +1°C° 0 mm 2 mps 677 mmHg 87%
    16:00 +3°C° 0 mm 1 mps 677 mmHg 90%
    17:00 +2°C° 0.3 mm 1 mps 677 mmHg 91%
    18:00 +1°C° 0.3 mm 2 mps 677 mmHg 92%
    19:00 -1°C° 0.3 mm 2 mps 677 mmHg 92%
    20:00 +1°C° 1.1 mm 2 mps 677 mmHg 93%
    21:00 +1°C° 1.1 mm 2 mps 678 mmHg 94%
    22:00 +2°C° 1.1 mm 2 mps 678 mmHg 95%
    23:00 +2°C° 1.6 mm 2 mps 678 mmHg 96%
    Show more